Location: Home
(42.5358°N, 72.7383°W)
Time: 18:23:22
(UTC-04:00)

Explorer 11/Cluster Stage 4 - Pass Details

Date: 10 August 2024
Orbit: 464 x 1208 km, 28.8° (Epoch: 19 September)

Event Time Altitude Azimuth Distance (km) Brightness Sun altitude
Rises 23:13:18 0° 221° (SW) 3,177 - -27.7°
Reaches altitude 10° 23:16:23 10° 202° (SSW) 2,402 - -27.9°
Maximum altitude 23:20:07 18° 162° (SSE) 2,083 - -28.2°
Drops below altitude 10° 23:24:17 10° 123° (ESE) 2,751 - -28.6°
Sets 23:28:10 0° 105° (ESE) 3,846 - -28.9°
